Wharton, TX

10:47 PM CST on November 18, 2019 (GMT -0600)
Wharton Regional

Weather History for KARM - October, 2019

Change the Weather History Date:

Monday, October 21, 2019

  Actual Average (WUND) Record (WUND)
Temperature  
Mean Temperature 69 °F -  
Max Temperature 80 °F - - (-1)
Min Temperature 59 °F - - (-1)
Cooling Degree Days 4    
Growing Degree Days 19 (Base 50)    
Moisture  
Dew Point 60 °F    
Average Humidity 68    
Maximum Humidity 92    
Minimum Humidity 32    
Precipitation  
Precipitation 1.01 in - - ()
Sea Level Pressure  
Sea Level Pressure 29.84 in    
Wind  
Wind Speed 9 mph ()    
Max Wind Speed 17 mph    
Max Gust Speed 30 mph    
Visibility 9.2 miles    
Events Rain , Thunderstorm    
Averages and records for this station are not official NWS values.
T = Trace of Precipitation, MM = Missing Value Source: Averaged Metar Reports

Daily Weather History Graph

Daily Weather History Graph

Search for Another Location

Airport or City:

Astronomy

Oct. 21, 2019 Rise Set
Actual Time 7:29 AM CDT 6:48 PM CDT
Civil Twilight 7:05 AM CDT 7:12 PM CDT
Nautical Twilight 6:37 AM CDT 7:40 PM CDT
Astronomical Twilight 6:10 AM CDT 8:07 PM CDT
Moon 12:16 AM CDT (10/21) 2:33 PM CDT (10/21)
Length of Visible Light 12h 06m
Length of Day
11h 18m
Waning Gibbous, 48% of the Moon is Illuminated
Oct 21
Waning Gibbous
Oct 27
New
Nov 4
First Quarter
Nov 12
Full
Nov 19
Last Quarter

Hourly Weather History & Observations

Time (CDT) Temp. Dew Point Humidity Pressure Visibility Wind Dir Wind Speed Gust Speed Precip Events Conditions
12:15 AM 78.8 °F 74.3 °F 86% 29.76 in 10.0 mi SSE 13.8 mph - N/A   Mostly Cloudy
12:35 AM 78.8 °F 74.5 °F 87% 29.75 in 10.0 mi SSE 9.2 mph - N/A   Mostly Cloudy
12:55 AM 78.8 °F 74.7 °F 87% 29.75 in 10.0 mi SSE 8.1 mph - N/A   Mostly Cloudy
1:15 AM 78.8 °F 74.7 °F 87% 29.74 in 10.0 mi SSE 10.4 mph - N/A   Scattered Clouds
1:35 AM 78.8 °F 75.2 °F 89% 29.73 in 10.0 mi SSE 11.5 mph - N/A   Mostly Cloudy
1:55 AM 79.2 °F 75.4 °F 88% 29.72 in 10.0 mi SSE 17.3 mph - N/A   Overcast
2:15 AM 79.2 °F 75.2 °F 88% 29.72 in 10.0 mi South 13.8 mph 17.3 mph N/A   Overcast
2:35 AM 79.2 °F 75.4 °F 88% 29.72 in 7.0 mi South 9.2 mph - N/A Rain Rain
2:55 AM 78.8 °F 75.2 °F 89% 29.71 in 10.0 mi South 11.5 mph 21.9 mph 0.01 in Rain Light Rain
3:15 AM 77.0 °F 73.4 °F 89% 29.70 in 3.0 mi SSE 15.0 mph - 0.21 in Rain Light Rain
3:35 AM 78.1 °F 74.7 °F 89% 29.71 in 7.0 mi South 5.8 mph - 0.21 in   Overcast
3:55 AM 78.1 °F 75.0 °F 90% 29.70 in 7.0 mi South 10.4 mph - 0.21 in   Overcast
4:15 AM 77.4 °F 74.1 °F 90% 29.72 in 7.0 mi South 8.1 mph - N/A   Overcast
4:35 AM 77.2 °F 73.9 °F 90% 29.72 in 7.0 mi South 4.6 mph - N/A   Overcast
4:55 AM 77.0 °F 73.8 °F 90% 29.71 in 7.0 mi Calm Calm - N/A   Overcast
5:15 AM 76.5 °F 73.6 °F 91% 29.71 in 5.0 mi SSE 4.6 mph - 0.02 in Rain Light Rain
5:35 AM 76.3 °F 73.6 °F 91% 29.70 in 5.0 mi South 3.5 mph - 0.03 in Rain , Thunderstorm Light Thunderstorms and Rain
5:55 AM 75.0 °F 72.3 °F 91% 29.71 in 5.0 mi South 6.9 mph - 0.08 in Rain , Thunderstorm Light Thunderstorms and Rain
6:15 AM 76.1 °F 72.9 °F 90% 29.71 in 10.0 mi SE 6.9 mph - 0.02 in Thunderstorm Overcast
6:35 AM 75.0 °F 71.8 °F 90% 29.72 in 10.0 mi SE 3.5 mph - 0.03 in Thunderstorm Overcast
6:55 AM 70.0 °F 66.2 °F 88% 29.78 in 3.0 mi NW 11.5 mph 29.9 mph 0.16 in Rain , Thunderstorm Heavy Thunderstorms and Rain
7:15 AM 67.3 °F 64.4 °F 90% 29.78 in 2.0 mi North 11.5 mph 19.6 mph 0.40 in Rain , Thunderstorm Heavy Thunderstorms and Rain
7:35 AM 66.9 °F 64.4 °F 92% 29.78 in 7.0 mi NNW 11.5 mph 18.4 mph 0.53 in Rain Rain
7:55 AM 67.1 °F 64.0 °F 90% 29.78 in 10.0 mi NNW 10.4 mph - 0.54 in Rain Light Rain
8:15 AM 67.1 °F 63.9 °F 89% 29.81 in 10.0 mi North 3.5 mph - N/A Rain Light Rain
8:35 AM 67.3 °F 64.0 °F 89% 29.81 in 10.0 mi NNE 5.8 mph - N/A   Mostly Cloudy
8:55 AM 67.5 °F 64.4 °F 90% 29.81 in 10.0 mi NNE 3.5 mph - 0.01 in   Scattered Clouds
9:15 AM 68.0 °F 64.8 °F 89% 29.83 in 10.0 mi NE 4.6 mph - N/A Thunderstorm Thunderstorm
9:35 AM 68.5 °F 65.3 °F 89% 29.85 in 10.0 mi NE 4.6 mph - N/A   Scattered Clouds
9:55 AM 69.6 °F 64.8 °F 84% 29.85 in 10.0 mi North 10.4 mph 16.1 mph N/A   Scattered Clouds
10:15 AM 70.0 °F 62.4 °F 77% 29.87 in 10.0 mi NNE 6.9 mph - N/A   Clear
10:35 AM 69.8 °F 62.1 °F 76% 29.88 in 10.0 mi North 13.8 mph 19.6 mph N/A   Scattered Clouds
10:55 AM 70.7 °F 62.2 °F 75% 29.88 in 10.0 mi North 12.7 mph - N/A   Scattered Clouds
11:15 AM 72.0 °F 61.7 °F 70% 29.87 in 10.0 mi NNE 11.5 mph 16.1 mph N/A   Scattered Clouds
11:35 AM 72.7 °F 57.9 °F 60% 29.88 in 10.0 mi NNE 13.8 mph 20.7 mph N/A   Scattered Clouds
11:55 AM 73.8 °F 54.7 °F 51% 29.89 in 10.0 mi NNE 9.2 mph 21.9 mph N/A   Scattered Clouds
12:15 PM 74.3 °F 53.8 °F 49% 29.88 in 10.0 mi North 13.8 mph 21.9 mph N/A   Overcast
12:35 PM 74.1 °F 53.4 °F 48% 29.88 in 10.0 mi North 16.1 mph 23.0 mph N/A   Scattered Clouds
12:55 PM 74.7 °F 53.6 °F 48% 29.87 in 10.0 mi NNE 12.7 mph 20.7 mph N/A   Clear
1:15 PM 76.1 °F 54.9 °F 48% 29.87 in 10.0 mi NNE 12.7 mph 17.3 mph N/A   Clear
1:35 PM 76.5 °F 55.6 °F 48% 29.86 in 10.0 mi North 13.8 mph 19.6 mph N/A   Clear
1:55 PM 77.2 °F 54.9 °F 46% 29.84 in 10.0 mi North 12.7 mph 20.7 mph N/A   Clear
2:15 PM 77.0 °F 55.6 °F 47% 29.83 in 10.0 mi North 8.1 mph - N/A   Clear
2:35 PM 77.9 °F 55.4 °F 46% 29.83 in 10.0 mi North 9.2 mph - N/A   Clear
2:55 PM 78.3 °F 52.3 °F 40% 29.84 in 10.0 mi NNE 10.4 mph 16.1 mph N/A   Clear
3:15 PM 78.3 °F 54.9 °F 44% 29.85 in 10.0 mi NNE 6.9 mph - N/A   Clear
3:35 PM 79.3 °F 54.5 °F 42% 29.84 in 10.0 mi NNE 6.9 mph - N/A   Clear
3:55 PM 79.3 °F 54.0 °F 41% 29.84 in 10.0 mi North 9.2 mph - N/A   Clear
4:15 PM 79.7 °F 50.7 °F 36% 29.84 in 10.0 mi North 11.5 mph - N/A   Clear
4:35 PM 79.9 °F 47.7 °F 32% 29.83 in 10.0 mi North 9.2 mph 16.1 mph N/A   Clear
4:55 PM 79.7 °F 48.4 °F 33% 29.83 in 10.0 mi North 10.4 mph - N/A   Clear
5:15 PM 79.7 °F 47.5 °F 32% 29.84 in 10.0 mi North 6.9 mph - N/A   Clear
5:55 PM 78.1 °F 46.8 °F 33% 29.85 in 10.0 mi North 8.1 mph - N/A   Clear
6:15 PM 76.5 °F 46.2 °F 34% 29.86 in 10.0 mi North 6.9 mph - N/A   Clear
6:35 PM 73.6 °F 48.6 °F 41% 29.88 in 10.0 mi North 5.8 mph - N/A   Clear
6:50 PM 71.1 °F 50.0 °F 47% 29.89 in 10.0 mi North 4.6 mph - N/A   Clear
7:15 PM 67.6 °F 51.6 °F 56% 29.91 in 10.0 mi North 5.8 mph - N/A   Clear
7:35 PM 65.7 °F 51.4 °F 60% 29.92 in 10.0 mi North 5.8 mph - N/A   Clear
7:55 PM 64.4 °F 51.6 °F 63% 29.94 in 10.0 mi North 4.6 mph - N/A   Clear
8:15 PM 66.2 °F 50.2 °F 56% 29.95 in 10.0 mi North 4.6 mph - N/A   Clear
8:35 PM 64.2 °F 49.6 °F 59% 29.97 in 10.0 mi North 5.8 mph - N/A   Clear
8:55 PM 62.4 °F 49.1 °F 62% 29.97 in 10.0 mi North 5.8 mph - N/A   Clear
9:15 PM 62.2 °F 48.9 °F 62% 29.98 in 10.0 mi North 5.8 mph - N/A   Clear
9:35 PM 61.7 °F 47.5 °F 60% 29.98 in 10.0 mi North 5.8 mph - N/A   Clear
9:55 PM 59.7 °F 48.2 °F 66% 30.00 in 10.0 mi North 5.8 mph - N/A   Clear
10:15 PM 59.0 °F 48.4 °F 68% 30.01 in 10.0 mi North 5.8 mph - N/A   Clear
10:35 PM 59.5 °F 47.7 °F 65% 30.01 in 10.0 mi North 5.8 mph - N/A   Clear
11:00 PM 59.0 °F 47.3 °F 65% 30.03 in 10.0 mi North 4.6 mph - N/A   Clear
11:15 PM 59.0 °F 47.1 °F 65% 30.03 in 10.0 mi North 6.9 mph - N/A   Clear
11:35 PM 60.1 °F 46.4 °F 61% 30.04 in 10.0 mi North 6.9 mph - N/A   Clear
11:55 PM 59.0 °F 46.4 °F 63% 30.04 in 10.0 mi North 8.1 mph - N/A   Clear